Regional Weather Roundup
Issued by NWS Jackson, KY

Home | Current Version | Previous Version | Text Only | Print | Product List | Glossary On
Versions: 1 2 3 4 5 6 7 8 9 10 11 12 13 14 15 16 17 18 19 20 21 22 23 24 25 26 27 28 29 30 31 32 33 34 35 36 37 38 39 40 41 42 43 44 45 46 47 48 49 50
000
ASUS43 KJKL 250919
RWRJKL

EAST KENTUCKY HOURLY WEATHER ROUNDUP
NATIONAL WEATHER SERVICE JACKSON KY
400 AM EST THU DEC 25 2014

NOTE: "FAIR" INDICATES FEW OR NO CLOUDS BELOW 12,000 FEET WITH
NO SIGNIFICANT WEATHER AND/OR OBSTRUCTIONS TO VISIBILITY.

* THESE REPORTS ARE NOT UNDER NWS QUALITY CONTROL AND MAY NOT
  REPORT WEATHER SUCH AS PRECIPITATION AND FOG.

KYZ079-080-083-085-087-088-110-112-115-119-120-251000
...EASTERN KENTUCKY...

CITY           SKY/WX    TMP DP  RH WIND       PRES   REMARKS
JACKSON        CLOUDY    39  32  76 MISG      29.90R
LONDON         CLOUDY    40  32  73 SW7       29.94R
SOMERSET*      CLOUDY    37  32  81 W12       29.97R WCI  30
MONTICELLO*    CLOUDY    40  36  86 W6        29.99R
MIDDLESBORO*   CLOUDY    40  32  74 W6        29.96R
HARLAN APT*    CLOUDY    37  32  81 W7        29.93R WCI  32
BLACK MTN*       N/A     28  28 100 NW5         N/A  WCI  23
PIKEVILLE APT* CLOUDY    39  34  81 W7        29.88R WCI  34
BIG SANDY*     CLOUDY    41  37  84 SW9       29.88R
MOREHEAD APT*  CLOUDY    39  34  81 SW15G25   29.91R WCI  31
ASHLAND*       CLOUDY   N/A N/A N/A W10       29.84R
$$

KYZ035-036-041-042-044-050-067-078-099-251000
...CENTRAL KENTUCKY...

CITY           SKY/WX    TMP DP  RH WIND       PRES   REMARKS
MT STERLING*   CLOUDY    37  34  87 W14G23    29.91R WCI  29
FLEMING/MASON* CLOUDY    37  34  87 W16       29.89R WCI  28
DANVILLE*      CLOUDY    37  34  87 W9        29.94R WCI  31
RICHMOND*      CLOUDY    39  34  81 W9        29.92R WCI  33
LEXINGTON      CLOUDY    38  34  85 W15G22    29.91R WCI  29
FRANKFORT      CLOUDY    38  34  85 SW10      29.90R WCI  31
$$

KYZ091>093-OHZ055-061-077-WVZ005-015-034-035-042-251000
...SOUTHERN OHIO/WEST VIRGINIA...

CITY           SKY/WX    TMP DP  RH WIND       PRES   REMARKS
COVINGTON      CLOUDY    38  31  76 W12       29.87R WCI  30
COLUMBUS       LGT RAIN  38  33  82 W14G24    29.77R WCI  30
DAYTON         CLOUDY    37  34  89 W20       29.80R WCI  27
WILMINGTON     LGT RAIN  37  32  82 W17       29.83R WCI  27
HUNTINGTON     CLOUDY    41  33  73 W12G20    29.86R
CHARLESTON     CLOUDY    41  38  89 W7        29.84R
PINEVILLE*     MIX PCPN  42  40  92 MISG      29.89R
BECKLEY        LGT RAIN  38  34  85 W15       29.81R WCI  29
BLUEFIELD      LGT RAIN  39  33  79 W13G23    29.81R WCI  31
$$

VAZ002-007-008-TNZ017-027-036-066-071-251000
...SOUTHWEST VIRGINIA/EAST TENNESSEE...

CITY           SKY/WX    TMP DP  RH WIND       PRES   REMARKS
WISE*          LGT RAIN  36  36 100 W10       29.87R WCI  28
JONESVILLE*    CLOUDY    39  32  75 W5        29.95R
ABINGDON*      CLOUDY    42  36  77 W12G18    29.86R
BRISTOL        LGT RAIN  41  37  86 W9G21     29.89R
KNOXVILLE      MOCLDY    40  36  86 W9        29.98R WCI  34
OAK RIDGE      LGT RAIN  41  35  79 VRB3      30.00R
CROSSVILLE     CLOUDY    37  33  85 W9        29.96R WCI  30
NASHVILLE      CLOUDY    41  33  73 NW7       30.02R
$$

...KEY TO REMARKS...
VSB - VISIBILITY IN MILES
WCI - WIND CHILL INDEX
HX  - HEAT INDEX

$$


USA.gov is the U.S. government's official web portal to all federal, state and local government web resources and services.